SXS2 EDDF-LTAI

Flight info

Callsign SXS2
Flight time N/A
Altitude 23000
Route CINDY8S/18 CINDY Z74 LAMPU/N0454F350 DCT NOMBO Y161 MAH DCT LATLO DCT OBEDI DCT CEPRA/N0451F370 DCT PODET DCT VABEK UL603 OLOTA DCT DISOR UL608 FSK UN128 IMR UN135 NESIL
Aircraft B38M/M-SDE1FGHILORVWXY/HB1

Departure

Time 2026-05-04 16:37
Airport Frankfurt Main Airport (EDDF)

Arrival

Time N/A
Airport Antalya International Airport (LTAI)
Time Latitude Longitude Altitude Speed Heading
2026-05-04 16:16 50.04653 8.57053 358 ft 0 kts 91°
2026-05-04 16:26 50.04653 8.57006 358 ft 4 kts 91°
2026-05-04 16:27 50.04668 8.56950 362 ft 4 kts 180°
2026-05-04 16:28 50.04651 8.56932 358 ft 0 kts 204°
2026-05-04 16:31 50.04501 8.56874 361 ft 15 kts 193°
2026-05-04 16:32 50.04328 8.56312 360 ft 26 kts 250°
2026-05-04 16:33 50.04198 8.55769 355 ft 26 kts 250°
2026-05-04 16:33 50.04074 8.55249 359 ft 25 kts 249°
2026-05-04 16:34 50.03953 8.54741 356 ft 28 kts 249°
2026-05-04 16:34 50.03884 8.54454 351 ft 27 kts 250°
2026-05-04 16:35 50.03686 8.53745 348 ft 26 kts 249°
2026-05-04 16:35 50.03490 8.52945 335 ft 29 kts 249°
2026-05-04 16:36 50.03430 8.52719 336 ft 17 kts 250°
2026-05-04 16:36 50.03290 8.52595 337 ft 20 kts 180°
2026-05-04 16:37 50.02035 8.52604 337 ft 153 kts 180°
2026-05-04 16:37 50.00825 8.52636 481 ft 188 kts 181°
2026-05-04 16:37 49.98143 8.52643 2063 ft 189 kts 180°
2026-05-04 16:38 49.95781 8.55072 2766 ft 242 kts 118°
2026-05-04 16:39 49.94040 8.62343 3866 ft 248 kts 94°
2026-05-04 16:39 49.93657 8.67969 5228 ft 268 kts 112°
2026-05-04 16:40 49.91231 8.72157 7061 ft 268 kts 146°
2026-05-04 16:40 49.88345 8.75885 8779 ft 278 kts 127°
2026-05-04 16:41 49.86395 8.81199 10339 ft 291 kts 124°
2026-05-04 16:41 49.83106 8.90230 10920 ft 350 kts 122°
2026-05-04 16:42 49.79433 9.00328 10976 ft 365 kts 122°
2026-05-04 16:43 49.76932 9.07182 11292 ft 367 kts 122°
2026-05-04 16:43 49.75334 9.14750 12726 ft 378 kts 107°
2026-05-04 16:43 49.74438 9.18559 13389 ft 378 kts 122°
2026-05-04 16:44 49.67625 9.31227 15869 ft 391 kts 134°
2026-05-04 16:45 49.64008 9.37616 17084 ft 399 kts 134°
2026-05-04 16:46 49.57437 9.45412 18688 ft 404 kts 151°
2026-05-04 16:46 49.52608 9.49883 19773 ft 407 kts 152°
2026-05-04 16:47 49.47699 9.54369 20749 ft 413 kts 152°
2026-05-04 16:47 49.42716 9.58906 21799 ft 416 kts 152°
2026-05-04 16:48 49.35284 9.65654 23529 ft 418 kts 151°
2026-05-04 16:48 49.32997 9.68423 23937 ft 424 kts 137°
2026-05-04 16:49 49.28788 9.74819 24723 ft 428 kts 139°
2026-05-04 16:49 49.24563 9.81237 25486 ft 433 kts 138°
2026-05-04 16:50 49.20255 9.87787 26184 ft 439 kts 139°
2026-05-04 16:50 49.15894 9.94404 26890 ft 444 kts 139°
2026-05-04 16:51 49.11481 10.01080 27593 ft 449 kts 139°
2026-05-04 16:51 49.09979 10.03349 27818 ft 450 kts 139°
2026-05-04 16:51 49.05497 10.09986 28532 ft 453 kts 141°
2026-05-04 16:52 49.00860 10.16562 29143 ft 458 kts 140°
2026-05-04 16:52 48.98520 10.19888 29380 ft 462 kts 141°
2026-05-04 16:53 48.93798 10.26579 29987 ft 466 kts 141°
2026-05-04 16:53 48.86618 10.36699 30791 ft 471 kts 141°
2026-05-04 16:54 48.84211 10.40083 31053 ft 472 kts 141°
2026-05-04 16:55 48.75101 10.54444 32252 ft 470 kts 137°
2026-05-04 16:55 48.70607 10.61599 32892 ft 467 kts 136°
2026-05-04 16:56 48.66146 10.68701 33549 ft 464 kts 136°
2026-05-04 16:56 48.59501 10.79243 34381 ft 461 kts 136°
2026-05-04 16:57 48.57302 10.82766 34591 ft 461 kts 136°
2026-05-04 16:57 48.52887 10.89819 34926 ft 461 kts 136°
2026-05-04 16:58 48.44129 11.03586 34942 ft 456 kts 137°
2026-05-04 17:00 48.30904 11.24144 34923 ft 456 kts 137°
2026-05-04 17:00 48.24905 11.35183 34961 ft 460 kts 122°
2026-05-04 17:01 48.21695 11.43528 34934 ft 462 kts 123°
2026-05-04 17:02 48.15324 11.60264 34921 ft 462 kts 122°
2026-05-04 17:03 48.10557 11.72745 34921 ft 462 kts 123°
2026-05-04 17:03 48.05755 11.85256 34919 ft 462 kts 123°
2026-05-04 17:04 47.99335 12.01892 34905 ft 462 kts 123°
2026-05-04 17:05 47.92885 12.18504 34906 ft 462 kts 123°
2026-05-04 17:06 47.88033 12.30931 34901 ft 462 kts 123°
2026-05-04 17:07 47.83715 12.41943 34903 ft 462 kts 123°
2026-05-04 17:07 47.79868 12.51461 34893 ft 459 kts 130°
2026-05-04 17:08 47.74077 12.62809 34941 ft 460 kts 129°
2026-05-04 17:09 47.70280 12.70446 34895 ft 458 kts 129°
2026-05-04 17:09 47.66481 12.78080 34925 ft 461 kts 129°
2026-05-04 17:10 47.56949 12.97151 34928 ft 460 kts 129°
2026-05-04 17:11 47.53127 13.04760 34912 ft 460 kts 129°
2026-05-04 17:12 47.47368 13.16186 34934 ft 463 kts 129°
2026-05-04 17:13 47.37771 13.35121 34961 ft 462 kts 129°
2026-05-04 17:14 47.30039 13.50283 34967 ft 463 kts 129°
2026-05-04 17:15 47.24221 13.61635 34958 ft 463 kts 129°
2026-05-04 17:16 47.16447 13.76734 34986 ft 462 kts 129°
2026-05-04 17:17 47.08653 13.91787 35007 ft 463 kts 129°
2026-05-04 17:18 47.00844 14.06788 35001 ft 463 kts 129°
2026-05-04 17:19 46.93029 14.21721 34981 ft 463 kts 130°
2026-05-04 17:20 46.85157 14.36680 34998 ft 464 kts 129°
2026-05-04 17:20 46.79216 14.47916 35005 ft 468 kts 129°
2026-05-04 17:21 46.71265 14.62883 34999 ft 467 kts 129°
2026-05-04 17:22 46.67276 14.70360 35012 ft 467 kts 130°
2026-05-04 17:23 46.59271 14.85308 35017 ft 469 kts 129°
2026-05-04 17:24 46.53267 14.96465 35018 ft 468 kts 129°
2026-05-04 17:25 46.45209 15.11370 35015 ft 473 kts 129°
2026-05-04 17:26 46.37069 15.26347 34997 ft 474 kts 129°
2026-05-04 17:27 46.26887 15.44967 34992 ft 471 kts 129°
2026-05-04 17:28 46.18729 15.59797 35008 ft 471 kts 129°
2026-05-04 17:29 46.06144 15.81500 35004 ft 471 kts 130°
2026-05-04 17:31 45.95594 15.99530 35001 ft 471 kts 131°
2026-05-04 17:32 45.84967 16.17573 34993 ft 473 kts 131°
2026-05-04 17:33 45.76452 16.31947 34998 ft 472 kts 130°
2026-05-04 17:34 45.67891 16.46324 35006 ft 475 kts 131°
2026-05-04 17:35 45.57159 16.64243 35020 ft 474 kts 130°
2026-05-04 17:36 45.52862 16.71385 35002 ft 474 kts 131°
2026-05-04 17:36 45.48559 16.78519 35007 ft 474 kts 131°
2026-05-04 17:37 45.44247 16.85650 35007 ft 474 kts 131°
2026-05-04 17:37 45.39961 16.92719 35018 ft 474 kts 130°
2026-05-04 17:38 45.35646 16.99818 35018 ft 474 kts 130°
2026-05-04 17:38 45.31329 17.06903 35004 ft 474 kts 130°
2026-05-04 17:39 45.25572 17.16322 35004 ft 474 kts 131°
2026-05-04 17:39 45.21235 17.23397 35020 ft 475 kts 130°
2026-05-04 17:40 45.16894 17.30461 35028 ft 475 kts 130°
2026-05-04 17:40 45.13999 17.35163 35027 ft 475 kts 130°